#timestamp,LO_Frequency,Hit,StdDev 
1635246015.4,286046998.9,N
1635246035.2,286046998.4,N
1635246055.0,286046998.4,N
1635246056.0,286046998.4,N
1635246075.8,286047001.2,N
1635246095.6,286046999.9,N
1635246115.5,286047000.0,N
1635246135.3,286047001.0,N
1635246155.1,286046999.9,N
1635246175.9,286046999.8,N
1635246195.7,286047002.4,N
1635246215.5,286047000.2,N
1635246235.4,286046999.9,N
1635246255.2,286047000.8,N
1635246275.1,286047000.4,N
1635246276.0,286047000.4,N
1635246295.8,286046999.9,N
1635246315.6,286047000.2,N
1635246335.5,286046999.7,N
1635246355.3,286047001.9,N
1635246375.1,286047000.2,N
1635246395.9,286046999.8,N
1635246415.7,286047000.8,N
1635246435.6,286046999.4,N
1635246455.4,286046999.1,N
1635246475.2,286046999.4,N
1635246495.1,286046999.1,N
1635246496.0,286046999.1,N
1635246515.8,286046999.4,N
1635246535.6,286046999.1,N
1635246555.5,286046996.5,Y
1635246575.3,286046999.3,P
1635246595.2,286046999.5,N
1635246615.0,286046997.0,P
1635246615.9,286046997.0,N
1635246635.8,286046996.6,N
1635246655.6,286046996.9,N
1635246675.4,286046999.1,N
1635246695.3,286046996.7,N
1635246715.1,286046998.4,N
1635246735.8,286047000.6,N
1635246755.7,286047000.1,N
1635246775.5,286047002.5,N
1635246795.4,286047001.0,N
1635246815.2,286047000.8,N
1635246835.0,286047000.9,N
1635246835.9,286047000.9,N
1635246855.8,286047000.5,N
1635246875.6,286047000.2,N
1635246895.4,286047001.2,N
1635246915.3,286047000.7,N
1635246935.1,286047000.8,N
1635246955.9,286047001.2,N
1635246975.7,286047000.6,N
1635246995.5,286047002.3,N
1635247015.4,286047000.3,N
1635247035.2,286046999.9,N
1635247055.0,286047002.0,N
1635247055.9,286047002.0,N
1635247075.8,286047002.6,N
1635247095.6,286047002.3,N
1635247115.5,286047001.5,N
1635247135.3,286047002.1,N
1635247155.1,286047002.2,N
1635247175.9,286047002.6,N
1635247195.7,286047002.4,N
1635247215.5,286046999.7,N
1635247235.4,286047000.4,N
1635247255.2,286047001.0,N
1635247275.1,286046998.5,N
1635247276.0,286046998.5,N
1635247295.8,286047000.2,N
1635247315.6,286046999.8,N
1635247335.5,286047000.2,N
1635247355.3,286047002.4,N
1635247375.2,286047002.7,N
1635247395.9,286047000.1,N
1635247415.7,286046999.8,N
1635247435.6,286047000.2,N
1635247455.4,286047002.4,N
1635247475.2,286047002.3,N
1635247495.1,286047001.8,N
1635247496.0,286047001.8,N
1635247515.8,286047002.0,N
1635247535.7,286047002.2,N
1635247555.5,286047001.8,N
1635247575.3,286047002.0,N
1635247595.2,286047003.7,Y
1635247615.0,286047002.8,P
1635247615.9,286047002.8,P
1635247635.7,286046999.7,N
1635247655.6,286047002.1,N
1635247675.4,286047002.8,N
1635247695.3,286047000.6,N
1635247715.1,286047000.5,N
1635247716.0,286047000.5,N
1635247735.8,286047000.4,N
1635247755.7,286047001.0,N
1635247775.5,286046998.5,N
1635247795.3,286046999.4,N
1635247815.2,286047001.2,N
1635247835.0,286047001.0,N
1635247835.9,286047001.0,N
1635247855.8,286046998.2,N
1635247875.6,286046998.4,N
1635247895.4,286046998.9,N
1635247915.3,286046996.9,N
1635247935.1,286046996.9,N
1635247955.8,286046996.6,N
1635247975.7,286046998.3,N
1635247995.5,286047000.3,N
1635248015.4,286047001.0,N
1635248035.2,286047000.8,N
1635248055.0,286047001.1,N
1635248055.9,286047001.1,N
1635248075.8,286047000.7,N
1635248095.6,286046998.8,N
1635248115.4,286047000.8,N
1635248135.3,286047000.9,N
1635248155.1,286047000.2,N
1635248175.9,286047000.2,N
1635248195.7,286046999.7,N
1635248215.5,286047000.2,N
1635248235.4,286047000.2,N
1635248255.2,286047002.7,N
1635248275.1,286047002.8,N
1635248276.0,286047002.8,N
1635248295.8,286047002.5,N
1635248315.6,286047002.4,N
1635248335.5,286046999.8,N
1635248355.3,286047001.2,N
1635248375.2,286047000.8,N
1635248395.9,286046998.7,N
1635248415.7,286046998.2,N
1635248435.6,286046999.3,N
1635248455.4,286046998.0,N
1635248475.2,286046997.7,N
1635248495.1,286046999.3,N
1635248496.0,286046999.3,N
1635248515.8,286046998.9,N
1635248535.7,286046998.3,N
1635248555.5,286046998.7,N
1635248575.3,286046998.5,N
1635248595.2,286046999.4,N
1635248615.0,286046998.5,N
1635248615.9,286046998.5,N
1635248635.7,286046998.6,N
1635248655.6,286046998.8,N
1635248675.4,286046996.7,N
1635248695.3,286046997.7,N
1635248715.1,286046995.0,Y
1635248735.8,286046999.3,P
1635248755.7,286046996.5,P
1635248775.5,286046999.4,N
1635248795.4,286046998.9,N
1635248815.2,286046998.2,N
1635248835.0,286047001.1,N
1635248835.9,286047001.1,N
1635248855.8,286047001.0,N
1635248875.6,286046998.5,N
1635248895.4,286046998.5,N
1635248915.3,286047001.0,N
1635248935.1,286047001.1,N
1635248955.9,286047000.7,N
1635248975.7,286047000.5,N
1635248995.5,286047000.3,N
1635249015.4,286047001.0,N
1635249035.2,286047000.3,N
1635249055.0,286047000.4,N
1635249055.9,286047000.4,N
1635249075.8,286047000.5,N
1635249095.6,286047000.3,N
1635249115.5,286046998.8,N
1635249135.3,286046999.5,N
1635249155.1,286046996.9,N
1635249175.9,286046996.5,N
1635249195.7,286046997.0,N
1635249215.5,286046997.1,N
1635249235.4,286046996.7,N
1635249255.2,286046997.3,N
1635249275.1,286046995.9,N
1635249276.0,286046995.9,N
1635249295.8,286046995.5,N
1635249315.6,286046995.5,N
1635249335.5,286046995.1,N
1635249355.3,286046997.6,N
1635249375.2,286046994.9,N
1635249395.9,286046994.9,N
1635249415.7,286046997.9,N
1635249435.6,286046997.9,N
1635249455.4,286046995.0,N
1635249475.2,286046997.8,N
1635249495.1,286046997.0,N
1635249496.0,286046997.0,N
1635249515.8,286046999.4,N
1635249535.7,286046995.0,N
1635249555.5,286046995.7,N
1635249575.3,286046995.6,N
1635249595.2,286046994.6,Y
